Regional Weather Roundup
Issued by NWS

Home | Current Version | Previous Version | Text Only | Print | Product List | Glossary Off
Versions: 1 2 3 4 5 6 7 8 9 10 11 12 13 14 15 16 17 18 19 20 21 22 23 24 25 26 27 28 29 30 31 32 33 34 35 36 37 38 39 40 41 42 43 44 45 46 47 48 49 50

000
ASUS43 KIND 242209
RWRIN

WEATHER ROUNDUP FOR INDIANA
NATIONAL WEATHER SERVICE INDIANAPOLIS IN
600 PM EDT FRI MAR 24 2017

NOTE: "FAIR" INDICATES FEW OR NO CLOUDS BELOW 12,000 FEET WITH NO
SIGNIFICANT WEATHER AND/OR OBSTRUCTIONS TO VISIBILITY.

* - STATION DOES NOT REPORT WEATHER SUCH AS PRECIPITATION OR FOG.

+ - STATION NOT QUALITY CONTROLLED BY THE NATIONAL WEATHER SERVICE.
    USE DATA WITH CAUTION...ESPECIALLY DEWPOINT AND RELATIVE
    HUMIDITY OBSERVATIONS.

INZ001>003-010>013-019-020-242300-
NORTHWEST INDIANA

CITY           SKY/WX    TMP DP  RH WIND       PRES   REMARKS
GARY /AIRPORT/ MOSUNNY   79  43  27 SW14G35   29.92R
KNOX *+        MOSUNNY   72  28  20 SW23G32   29.95R
LA PORTE +     MOSUNNY   74  56  53 SW17G29   29.95R
MICHIGAN CITY+ MOSUNNY   77  54  44 SW25      29.93R
MONTICELLO +   PTSUNNY   72  54  52 SW24G33   29.99R
RENSSELAER +   CLOUDY    73  52  46 S24G31    29.97S
VALPARAISO     MOSUNNY   76  56  49 SW20G33   29.95R

$$

LMZ046-743>745-242300-
SOUTHERN LAKE MICHIGAN

STATION/POSITION TIME  TEMP    WIND        PRES    WAVE
                       AIR SEA DIR/SP/G            HT
                 (UTC) (F)     (DEG/KT/KT) (MB)    (FT)
BURNS HARBOR     2140   75     210/ 21/ 33 1013.2R
MICHIGAN CITY    2140   73     220/ 25/ 28   N/A

$$

INZ004-005-014>016-021>024-242300-
NORTH CENTRAL INDIANA

CITY           SKY/WX    TMP DP  RH WIND       PRES   REMARKS
ELKHART        SUNNY     75  54  46 SW14G25   29.93S
GOSHEN         SUNNY     75  53  46 SW24G35   29.95S
LOGANSPORT +   PTSUNNY   70  54  56 SW23G33   30.02R
PERU/GRISSOM   MOSUNNY   73  55  53 SW29G36   29.99R
ROCHESTER +    MOSUNNY   75  55  50 SW23G30   30.00R
SOUTH BEND     CLOUDY    74  55  51 SW25G36   29.94R
WARSAW +       PTSUNNY   72  54  53 SW15G22   29.97R

$$

INZ006>009-017-018-025>027-242300-
NORTHEAST INDIANA

CITY           SKY/WX    TMP DP  RH WIND       PRES   REMARKS
ANGOLA *+      MOSUNNY   73  66  78 SW15      29.95F
AUBURN +       SUNNY     73  52  46 SW16G26   29.98S
FORT WAYNE     MOSUNNY   73  54  51 SW22      30.00S
HUNTINGTON +   MOSUNNY   72  53  50 SW14G26   30.00S
KENDALLVILLE + MOSUNNY   74  54  50 SW22G29   29.97S

$$

INZ028-029-035-036-043>045-051>053-242300-
WEST CENTRAL INDIANA

CITY           SKY/WX    TMP DP  RH WIND       PRES   REMARKS
CRAWFORDSVL +  PTSUNNY   69  54  58 S21G36    30.03R
GREENCASTLE +  PTSUNNY   70  52  52 SW12G28   30.05S
LAFAYETTE      PTSUNNY   71  55  56 SW14G23   30.01R
TERRE HAUTE    PTSUNNY   72  53  51 SW24G35   30.04R

$$

INZ030>032-037>040-046>048-054>057-064-065-242300-
CENTRAL INDIANA

CITY           SKY/WX    TMP DP  RH WIND       PRES   REMARKS
CP ATTERBURY + MOSUNNY   73  52  46 SW21      30.07S
COLUMBUS       MOSUNNY   73  54  49 SW22G28   30.07S
FISHERS *+     MOSUNNY   72  57  60 S23G29    30.04F
FRANKFORT +    MOSUNNY   74  56  52 SW25G38   30.05R
GREENWOOD *+   MOSUNNY   73  54  52 S22       30.06S
INDIANAPOLIS   MOSUNNY   73  53  49 SW29G36   30.04S
-EAGLE CREEK   MOSUNNY   73  53  49 SW18G32   30.03F
MARION +       SUNNY     72  54  51 SW25G33   30.02S
MT COMFORT *+  MOSUNNY   72  54  53 SW23      30.05F
SHELBYVILLE    MOSUNNY   74  53  48 S15G25    30.05F
ZIONSVILLE +   SUNNY     72  54  53 SW24G38   30.04S

$$

INZ033-034-041-042-049-050-058-059-242300-
EAST CENTRAL INDIANA

CITY           SKY/WX    TMP DP  RH WIND       PRES   REMARKS
MUNCIE         SUNNY     74  52  46 SW15G31   30.02F
RICHMOND +     CLOUDY    72  54  53 SW17G24   30.09R

$$

INZ060-061-067>069-081>083-085>088-242300-
SOUTHWEST INDIANA

CITY           SKY/WX    TMP DP  RH WIND       PRES   REMARKS
EVANSVILLE     PTSUNNY   74  52  46 SW21G28   30.08F
HUNTINGBURG *+ PTSUNNY   73  55  53 S21       30.09F
WASHINGTON +   PTSUNNY   73  51  46 CALM      30.06F

$$

INZ062-063-066-070>080-084-089>092-242300-
SOUTH CENTRAL AND SOUTHEAST INDIANA

CITY           SKY/WX    TMP DP  RH WIND       PRES   REMARKS
BEDFORD +      PTSUNNY   75  50  41 S14G22    30.07F
BLOOMINGTON    PTSUNNY   73  52  47 SW18G28   30.07F
MADISON *+     MOSUNNY   73  48  40 S13G21    30.12S
NORTH VERNON + MOSUNNY   75  52  43 S15G23    30.09F
SEYMOUR +      MOSUNNY   75  54  46 SW18G24   30.08S

$$





USA.gov is the U.S. government's official web portal to all federal, state and local government web resources and services.